This demonstration page uses our WeatherBlox Daily Observations layout. Learn more.

Left ArrowRight Arrow

Hourly Observations for September 23, 2018

Temp ( °F °C ) Dew Point ( °F °C ) Humidity (%) Winds ( mph kmh ) Pressure ( in mb ) Visibility ( mi km ) Precip ( " mm )
12:54 am 00:54 Clear 54 12.2 47 8.3 77 77 SSE 6 9 30.06 1018 10 16 N/A
1:54 am 01:54 Clear 54 12.2 48 8.9 80 80 N N/A 30.06 1018 10 16 N/A
2:54 am 02:54 Clear 54 12.2 47 8.3 77 77 SSE 3 6 30.06 1018 10 16 N/A
3:54 am 03:54 Clear 51 10.6 47 8.3 86 86 SSE 5 7 30.05 1018 10 16 N/A
4:54 am 04:54 Clear 50 10 46 7.8 86 86 S 5 7 30.05 1018 10 16 N/A
5:54 am 05:54 Clear 48 8.9 45 7.2 89 89 S 6 9 30.05 1018 10 16 N/A
6:54 am 06:54 Clear 48 8.9 45 7.2 89 89 S 6 9 30.05 1018 10 16 N/A
7:54 am 07:54 Sunny 50 10 48 8.9 93 93 S 7 11 30.05 1018 10 16 N/A
8:54 am 08:54 Sunny 57 13.9 53 11.7 87 87 S 7 11 30.05 1018 10 16 N/A
9:54 am 09:54 Sunny 65 18.3 56 13.3 73 73 S 12 19 30.05 1018 10 16 N/A
10:54 am 10:54 Sunny 70 21.1 56 13.3 61 61 SSW 15 24 30.03 1017 10 16 N/A
11:54 am 11:54 Sunny 74 23.3 57 13.9 56 56 S 14 22 30.02 1017 10 16 N/A
12:54 pm 12:54 Sunny 76 24.4 55 12.8 48 48 S 10 17 30.00 1016 10 16 N/A
1:54 pm 13:54 Sunny 79 26.1 56 13.3 45 45 SSE 15 24 29.97 1015 10 16 N/A
2:54 pm 14:54 Sunny 81 27.2 54 12.2 39 39 S 15 24 29.94 1014 10 16 N/A
3:54 pm 15:54 Sunny 81 27.2 55 12.8 41 41 S 22 35 29.91 1013 10 16 N/A
4:54 pm 16:54 Sunny 80 26.7 56 13.3 44 44 S 21 33 29.90 1013 10 16 N/A
5:54 pm 17:54 Sunny 78 25.6 56 13.3 47 47 S 17 28 29.90 1013 10 16 N/A
6:54 pm 18:54 Sunny 74 23.3 56 13.3 54 54 S 13 20 29.90 1013 10 16 N/A
7:54 pm 19:54 Clear 66 18.9 55 12.8 68 68 SSE 9 15 29.92 1013 10 16 N/A
8:54 pm 20:54 Clear 62 16.7 55 12.8 78 78 SSE 9 15 29.92 1013 10 16 N/A
9:54 pm 21:54 Clear 62 16.7 55 12.8 78 78 S 10 17 29.92 1013 10 16 N/A
10:54 pm 22:54 Clear 59 15 53 11.7 81 81 S 9 15 29.92 1013 10 16 N/A
11:54 pm 23:54 Clear 60 15.6 54 12.2 80 80 SSE 9 15 29.92 1013 10 16 N/A

Powered by AerisWeather